Погода в Тюкалинске

Погода в Тюкалинске : погода сейчас, прогноз погоды и архив. Всё, что Вы хотите узнать о погоде в Тюкалинске!

Хотите узнать прогноз погоды в Тюкалинске? Тогда Вам сюда: Погода в Тюкалинске

Поиск расширенной информации на нашем сайте:

Другие новости

Новости СМИ2

Главная страница сайта

Новости сайта

03.07.2017

Напоминаем, что на нашем специализированном сайте Метеоцентр.Азия вы можете получить высокодетализированные автоматические прогнозы погоды по пунктам России, СНГ и мира в авиационном формате (включающие направление и скорость ветра, видимость, явления погоды, количество и форму облачности, нижнюю и верхнюю границу облачности).

Рекомендуем: Черный щебень цена.

Погода в Тюкалинске - сегодня

Время (UTC), дата Ветер
(°,м/с) 
Видим.   Явления Облачность Т
(°С)
Тd
(°С)
f(%) Тe
(°С)
Pmin
(гПа)
dP
(гПа)
Po
(мм)
O2
(г/м3)
Тmin Tmax R s Состояние
почвы
06 17.09.17 230 (ЮЗ) 20000 м    8/0 средняя, верхняя 
[Ac cast|Ci sp]
+19.9 +10.5 55 +23  1008.9  -0.7  747  278           
09 17.09.17 300 (СЗ) 5{12}  20000 м    9/0 средняя, верхняя 
[Ac lent|Ci fib]
+19.9 +10.8 56 +22  1009.3  0.4  747  279           
12 17.09.17 290 (З) 3{11}  20000 м    8/0 средняя 
[Ac trans]
+18.1 +8.9 55 +19  1009.5  0.1  747  281           
18 17.09.17 250 (З) 10 км    8/0 средняя 
[Ac trans]
+10.9 +7 77 +11  1010.3  0.1  747  288           
21 17.09.17 240 (ЮЗ) 10 км    6/0 верхняя 
[Ci fib]
+9.2 +5.8 79 +9  1010.1  -0.3  747  290           
00 18.09.17 240 (ЮЗ) 10 км    3/3 1000 м 
[Cu hum]
+7.4 +5.4 87 +7  1010.4  0.2  747  292           
03 18.09.17 240 (ЮЗ) 20000 м    8/8 600 м 
[Sc]
+9.7 +6.3 79 +9  1010.3  747  290  +7.1         
06 18.09.17 240 (ЮЗ) 20000 м    10/3 600 м кучево-дожд., средняя 
[Cb cap|Ac trans]
+14.8 +6.4 57 +14  1009.5  -0.6  747  284           
09 18.09.17 260 (З) 5{10}  20000 м    10/3 1000 м верхняя 
[Cu med, cong|Cs]
+15.2 +6.7 57 +15  1009  -0.4  746  284           
15 18.09.17 270 (З) 10 км  {ливн. осадки}  9/9 600 м кучево-дожд. 
[Cb cap]
+11 +7.6 80 +10  1010  0.9  747  288    +16.1     
18 18.09.17 280 (З) 10 км  {ливн. осадки}  8/0 верхняя 
[Ci sp]
+10 +7.2 83 +9  1011.5  1.4  748  290           
21 18.09.17 280 (З) 10 км    10/10 600 м кучево-дожд. 
[Cb cap]
+9.3 +6.3 81 +9  1012.6  1.1  749  291           
00 19.09.17 270 (З) 10 км    10/10 600 м 
[Sc]
+7.9 +5 82 +7  1014.3  1.5  750  293           
03 19.09.17 290 (З) 20000 м    8/4 300 м средняя, верхняя 
[St|Ac trans|Cc]
+9.1 +4.4 72 +8  1016.1  1.9  752  292  +7.7    0.0     
06 19.09.17 290 (З) 5{14}  20000 м    10/10 600 м 
[Sc]
+9.6 +4 68 +8  1018.1  1.9  753  292           
12 19.09.17 290 (З) 4{10}  20000 м    10/10 600 м 
[Sc]
+10.9 +3.7 61 +10  1020.1  755  292           
15 19.09.17 260 (З) 10 км    10/10 600 м 
[Sc]
+9.7 +4.4 70 +10  1021.6  1.5  756  293    +11.3       
18 19.09.17 250 (З) 10 км    10/10 600 м 
[Sc]
+8.9 +4.6 74 +9  1021.9  0.2  756  294           
21 19.09.17 210 (ЮЗ) 10 км    10/10 600 м 
[Sc]
+7.3 +4.3 81 +7  1021.1  -0.9  755  296           
00 20.09.17 160 (Ю) 10 км    10/0 средняя 
[Ac As]
+8 +4.6 79 +8  1019.5  -1.5  754  294           
03 20.09.17 140 (ЮВ) 4000 м  слаб. дождь  10/10 600 м 
[Sc]
+7.3 +6 91 +6  1017.7  -1.9  753  294  +7       
06 20.09.17 130 (ЮВ) 20000 м  {дождь}  10/10 600 м кучево-дожд. 
[Cb cap]
+9.9 +6.6 80 +9  1015.4  -2.1  751  291           
09 20.09.17 140 (ЮВ) 20000 м  {ливн. осадки, дождь}  8/3 600 м кучево-дожд., средняя 
[Cb cap|Ac lent]
+11 +8.6 85 +10  1012.1  -3.1  749  288           
12 20.09.17 190 (Ю) 20000 м  {ливн. осадки}  6/0 верхняя 
[Ci ing]
+13.1 +10.4 84 +16  1010.9  -1.1  748  286           
15 20.09.17 100 (В) 4000 м  дымка  8/6 600 м кучево-дожд., верхняя 
[Cb cap|Ci fib]
+8.8 +7.9 94 +10  1010.4  -0.7  747  290    +13.3     
Время (UTC), дата Ветер
(°,м/с) 
Видим.   Явления Облачность Т
(°С)
Тd
(°С)
f(%) Тe
(°С)
Pmin
(гПа)
dP
(гПа)
Po
(мм)
O2
(г/м3)
Тmin Tmax R s Состояние
почвы

Для получения пояснительной информации подведите курсор к названию столбца.

ПОГОДА в Тюкалинске - архив

Всё, что Вы хотите узнать о погоде в Тюкалинске - удобно и подробно!

Выберите нужную дату (начиная с 1 января 2015* года) и нажмите кнопку "Найти".
Будут отображены архивные сводки погоды по пункту Тюкалинск, начиная с указанной даты.


Отображать данные в формате CSV (для использования в таблицах Excel)


Внимание! Наш архив погоды предназначен исключительно для личного некоммерческого использования в познавательных целях. Если Вам необходимы официальные справки о состоянии погоды (для производственных, юридических, коммерческих и т.п. целей), обращайтесь в органы Росгидромета.

*Примечание: данная дата относится к архиву по метеостанциям СССР (Россия, СНГ, Балтия).
Архив по метеостанциям Зарубежной Европы и Азии (кроме Китая) хранится 10 дней, по другим регионам земного шара (Китай, Африка, Америка, Австралия, Океания) - 1 день.

Тюкалинск - район местоположения метеостанции


Название, широта, долгота, высота метеостанции:
Тюкалинск 55.9°ш. 72.2°д. 118 м над ур. моря [Российская Федерация]

Дополнительная информация

В oтличие oт бoльшинства пoгoдных сайтoв мы публикуем пoдрoбную метеoинфoрмацию в детальнoм прoфессиoнальнoм фoрмате.

Характеристики температуры и влажнoсти вoздуха измеряются на высoте 2 м в тени вдали oт зданий и деревьев.
Скoрoсть ветра измеряется на высoте 10 м (на урoвне рoста челoвека скoрoсть ветра ниже в 1.5-2 раза). Если метеoстанция нахoдится в гoрoде или в лесу, тo скoрoсть ветра занижена на 2-4 м/с пo сравнению с oткрытым местoм. Скoрoсть ветра над акватoриями крупных рек и oзёр, а также на вершинах хoлмoв на 2-5 м/с выше, чем в oбычных услoвиях.
Атмoсфернoе давление в разных тoчках местнoсти мoжет значительнo oтличаться oт давления на метеoстанции, в зависимoсти oт услoвий рельефа (при пoдъёме на 10 м давление пoнижается примернo на 1 мм рт.ст.).